WGS F7 (USA 263)

Last updated on Jan. 26, 2020, 4:40 a.m. UTC

1 40746U 15036A   20025.51930274  .00000009  00000-0  00000-0 0  9995
2 40746   0.0145  56.5987 0000205 225.7100 203.9211  1.00270715 16487
UTC
Height (km)
Latitude
Longitude
Inclination
Orbital Period
UTC large
Height (km)
Speed (km/s)
/
Latitude / Longitude
Inclination (degrees)
Orbital Period (minutes)
Azimuth
Elevation
Range (km)
Doppler Factor
iOS Compass Heading
iOS Angle

Next 30 passes for location: Hong Kong

Rise time Rise Azimuth (degrees) Set time Set Azimuth (degrees) Duration Max altitude (degrees)

No matching passes for this satellites